Regional Weather Roundup
Issued by NWS

Home | Current Version | Previous Version | Graphics & Text | Print | Product List | Glossary On
Versions: 1 2 3 4 5 6 7 8 9 10 11 12 13 14 15 16 17 18 19 20 21 22 23 24 25 26 27 28 29 30 31 32 33 34 35 36 37 38 39 40 41 42 43 44 45 46 47 48 49 50
813
ASUS43 KOAX 261910
RWRNE

WEATHER ROUNDUP FOR NEBRASKA
NATIONAL WEATHER SERVICE OMAHA NE
200 PM CDT TUE JUL 26 2016

NOTES: SATELLITE DATA IS BEING USED TO AUGMENT CLOUD COVER ABOVE
       12000 FEET.
       "FAIR" INDICATES FEW OR NO CLOUDS BELOW 12,000 FEET WITH NO
       SIGNIFICANT WEATHER AND/OR OBSTRUCTIONS TO VISIBILITY.

  * THESE STATIONS DO NOT REPORT WEATHER SUCH AS RAIN...SNOW OR FOG.

NEZ001>004-019>022-054>056-262000-
NEBRASKA PANHANDLE

CITY           SKY/WX    TMP DP  RH WIND       PRES   REMARKS
SCOTTSBLUFF    SUNNY     90  55  30 VRB3      30.03F
ALLIANCE       SUNNY     89  63  41 SE15      30.03F HX  90
CHADRON        SUNNY     89  59  36 SE12G18   29.99F
KIMBALL        CLOUDY    92  45  19 N9G17     30.11S
SIDNEY         SUNNY     92  54  27 S15G22    30.08F HX  90
$$

NEZ057>060-069>072-079>082-262000-
SOUTHWEST NEBRASKA

CITY           SKY/WX    TMP DP  RH WIND       PRES   REMARKS
NORTH PLATTE   SUNNY     86  68  54 SE10      30.04F
IMPERIAL       SUNNY     89  61  38 S15G23    30.04F
LEXINGTON      SUNNY     84  65  52 S12       30.05F
MCCOOK         SUNNY     90  65  43 S16       30.03F HX  92
OGALLALA       SUNNY     89  64  44 S13       30.04F HX  90
$$

NEZ005>010-023>029-035>040-094-262000-
NORTH CENTRAL NEBRASKA

CITY           SKY/WX    TMP DP  RH WIND       PRES   REMARKS
VALENTINE      CLOUDY    88  61  40 S13       30.00F
AINSWORTH      MOSUNNY   87  67  49 S10       30.03F HX  90
BROKEN BOW     SUNNY     83  67  58 S12       30.06F
O`NEILL        SUNNY     87  58  37 S13G21    30.04F
ORD            SUNNY     84  62  47 S12       30.05S
THEDFORD       SUNNY     87  65  47 S9        30.07F
$$

NEZ041-046>049-061>064-073>077-083>087-262000-
SOUTH CENTRAL NEBRASKA

CITY           SKY/WX    TMP DP  RH WIND       PRES   REMARKS
GRAND ISLAND   SUNNY     85  66  53 SE10G20   30.06F
AURORA         SUNNY     83  66  56 SE12      30.06F
HASTINGS       SUNNY     86  63  45 S12       30.06F
HEBRON         SUNNY     86  62  44 SE9       30.05F
HOLDREGE       SUNNY    N/A N/A N/A MISG        N/A
KEARNEY *      SUNNY     84  66  54 S13       30.06F
YORK           SUNNY     84  66  54 S9        30.06F
$$

NEZ011>018-030>034-042>045-262000-
NORTHEAST NEBRASKA

CITY           SKY/WX    TMP DP  RH WIND       PRES   REMARKS
NORFOLK        SUNNY     85  64  49 SE12G21   30.05F
ALBION         SUNNY     82  66  57 SE8       30.06F
BLAIR          SUNNY     83  64  52 E6        30.06F
FREMONT        SUNNY     83  64  51 SE7       30.06S
TEKAMAH        SUNNY     85  62  46 E8        30.05F
WAYNE          SUNNY     83  71  65 S9        30.05F
$$

NEZ050>053-065>068-078-088>093-262000-
SOUTHEAST NEBRASKA

CITY           SKY/WX    TMP DP  RH WIND       PRES   REMARKS
LINCOLN        SUNNY     86  65  49 MISG      30.06F
OMAHA EPPLEY   PTSUNNY   86  62  44 SE9       30.05F
BEATRICE       SUNNY     87  62  44 S6        30.04F
FALLS CITY     SUNNY     85  69  58 CALM      30.04F
NEBRASKA CITY  SUNNY     83  61  47 E5        30.06F
PLATTSMOUTH    SUNNY     84  64  51 SE6       30.06F
$$

NEZ044-045-051>053-067-262000-
OMAHA AREA

CITY           SKY/WX    TMP DP  RH WIND       PRES   REMARKS
OMAHA EPPLEY   PTSUNNY   86  62  44 SE9       30.05F
BLAIR          SUNNY     83  64  52 E6        30.06F
FREMONT        SUNNY     83  64  51 SE7       30.06S
MILLARD        SUNNY     85  65  52 S7        30.05F
OFFUTT AFB     SUNNY     85  63  47 E8        30.05F
PLATTSMOUTH    SUNNY     84  64  51 SE6       30.06F
WAHOO          FAIR      84  66  53 SE7       30.06F
$$




USA.gov is the U.S. government's official web portal to all federal, state and local government web resources and services.